sat.trackr.live / text

‹ back to catalog

ONEWEB-0069

NORAD 45430 · 2020-020G

PAYLOAD ACTIVE UNKNOWN

§ Identity

Operator
Country
UK
Launch date
2020-03-21
Launch site
TYMSC
Launch vehicle
Mass (kg)
RCS (m²)

Purposes: comms

External: N2YO · Heavens-Above · Gunter

§ Orbital elements

Epoch: 2026-05-25T02:38:17.596896Z

Period
109.85 min
Inclination
87.8915°
Eccentricity
0.0001869
Mean motion
13.10861144 rev/d
Perigee alt
1,218.4 km
Apogee alt
1,221.2 km
Semi-major
7,598.0 km
B*
1.3060e-3
RAAN
25.6601°
Arg perigee
80.4828°
Mean anomaly
279.6511°
Rev number
29,964

§ Raw data

ONEWEB-00691 45430U 20020G   26145.10992589  .00000472  00000+0  13060-2 0  99952 45430  87.8915  25.6601 0001869  80.4828 279.6511 13.10861144299640

JSON: /api/v1/satellites/45430 · /tle

For live sub-satellite position, see the globe view (requires WebGL).

§ Visibility from observer

Set your observer location to see the next 7 days of passes ≥ 10°. The values pass through the URL so the page stays shareable.

No JS? Fill the form by hand. The geolocation button needs JavaScript.